Wind_Speed
4 2 5 9 9 9 12 14 13 21 22 24 28 30 27 30 29 33 43 44 41 38 33 29 25 22 19 17 15 15 16 15 15 13 12 11 10 7 6 6 5 7 12
7 5 4 2 7 7 10 11 13 14 17 21 24 27 29 28 28 28 31 41 42 37 37 32 29 27 27 25 22 20 18 17 15 13 11 10 11 9 6 2 3 4 6
12 9 8 4 2 4 5 12 12 10 13 15 18 20 24 24 24 25 27 29 35 42 40 33 33 31 28 28 27 25 23 21 19 17 16 13 13 12 8 4 3 5 5
12 12 11 7 4 3 5 7 11 6 11 12 18 18 17 21 21 21 22 26 30 33 37 37 32 35 34 30 27 29 27 24 23 22 21 19 16 14 12 10 4 9 8
11 16 13 11 9 4 9 7 6 4 7 9 13 15 16 17 17 20 17 21 30 31 32 35 29 33 31 34 33 28 26 28 27 26 24 22 22 18 16 16 12 12 11
13 17 18 12 10 9 7 7 6 4 6 6 9 12 13 11 13 12 15 17 19 24 25 26 30 29 31 32 34 34 31 29 31 30 27 26 25 24 21 17 13 11 10
12 18 18 22 15 12 13 10 7 6 4 4 5 10 12 10 9 10 14 14 15 19 21 20 21 25 28 29 32 35 34 31 29 30 29 27 25 24 23 21 19 14 10
9 18 19 20 21 20 18 15 12 6 9 8 6 7 9 12 10 4 5 10 12 13 16 18 17 20 20 23 26 31 34 32 31 29 26 26 27 25 23 24 23 22 18
12 14 21 19 19 16 15 16 13 10 11 11 11 9 8 13 11 7 6 7 7 13 10 13 17 14 21 14 20 21 29 26 30 27 27 26 25 25 24 22 20 18 19
16 15 18 21 20 22 16 14 11 11 10 13 8 6 8 12 13 10 7 6 4 6 9 11 11 13 15 10 14 16 17 22 22 27 26 24 24 23 24 21 20 18 15
13 17 18 21 18 20 18 15 11 10 9 10 11 11 13 12 13 12 11 8 7 8 7 7 8 10 12 7 9 10 14 18 19 16 22 24 24 22 23 22 19 17 15
11 18 20 20 20 16 21 17 13 7 8 10 12 13 14 11 11 14 14 12 9 7 6 7 9 11 11 8 10 10 11 18 15 13 15 16 19 21 19 18 19 17 14
13 11 15 18 17 20 20 18 16 12 11 10 11 12 13 13 15 16 12 6 6 5 7 8 6 6 8 11 9 13 14 15 17 14 12 13 16 18 18 16 13 13 13
3 2 5 11 14 14 18 19 18 17 11 12 14 13 15 16 11 14 7 5 4 5 5 3 2 4 6 10 12 12 12 14 17 17 17 19 17 18 19 17 16 12 9
14 7 6 4 14 15 17 18 18 17 14 13 14 14 12 14 12 9 4 4 6 4 5 2 4 2 4 9 13 19 19 18 20 20 22 23 23 22 20 21 20 19 14
20 9 5 3 6 15 15 20 21 20 17 14 13 14 14 12 12 9 11 6 11 9 6 4 4 6 5 12 16 19 21 17 17 22 25 25 22 24 23 22 22 20 20
25 17 8 7 8 11 12 20 30 26 26 24 16 16 17 15 13 13 12 13 10 10 10 10 10 10 10 15 19 17 24 25 17 16 17 21 22 23 23 27 25 22 20
31 25 27 27 21 16 17 18 27 30 28 28 23 22 20 19 18 16 15 17 15 17 16 16 16 15 14 16 16 18 24 24 18 18 17 16 18 20 23 23 23 23 25
33 32 32 30 31 22 22 21 23 25 27 30 27 26 20 19 21 19 19 16 24 22 22 15 21 19 20 20 20 20 24 22 17 11 10 12 13 14 16 17 16 17 19
45 36 32 27 27 19 22 20 20 24 28 31 25 22 24 24 23 23 19 17 21 21 25 20 26 25 25 24 22 19 23 17 11 9 9 15 12 13 17 16 15 16 18
34 29 29 28 29 31 23 21 20 22 25 26 25 24 26 26 22 22 22 22 21 27 30 29 30 29 27 24 22 22 22 17 14 12 10 15 12 10 11 15 15 19 22
31 33 38 38 36 33 22 24 21 22 26 29 28 29 29 24 22 26 29 29 25 27 29 31 33 33 30 29 28 24 21 20 21 19 13 16 13 19 17 11 14 16 22
33 35 39 37 32 30 27 28 23 21 22 26 22 24 24 24 30 27 27 29 27 23 24 28 30 31 34 36 33 30 30 25 24 26 28 15 19 18 17 11 13 12 16
43 41 38 39 32 35 36 33 27 22 25 27 24 22 26 34 27 27 25 22 21 21 21 24 25 26 28 29 31 30 30 31 27 29 33 21 19 19 21 17 9 11 20
52 47 42 38 43 42 41 39 37 35 32 31 33 33 27 27 27 26 21 19 18 22 21 21 24 30 32 34 35 33 34 36 29 29 36 27 24 24 22 16 11 8 17
51 51 49 50 51 55 50 44 42 41 38 37 38 36 25 26 26 27 26 23 23 21 25 27 35 38 40 40 39 38 35 31 29 31 35 33 29 20 21 18 15 14 17
Wind_Direction
195 131 86 67 67 68 52 39 49 44 36 42 44 50 57 52 51 42 54 50 50 49 49 51 53 57 58 58 56 58 66 73 72 72 61 54 56 57 56 81 98 159 158
204 193 212 66 68 52 29 24 41 33 37 39 48 51 54 54 56 58 44 48 44 52 51 49 52 61 65 66 66 67 67 68 70 67 59 46 43 46 57 72 132 139 159
239 228 240 222 75 39 352 358 359 41 37 27 41 45 54 59 62 66 59 40 41 42 39 56 56 55 62 66 68 66 66 65 58 52 49 51 56 54 47 51 147 181 170
251 227 239 242 296 5 338 341 349 24 30 29 41 43 47 57 58 66 65 60 53 43 46 42 63 60 60 63 67 66 59 63 65 56 55 51 43 39 44 41 108 157 162
245 234 233 225 245 267 294 293 330 353 22 34 38 44 37 49 59 64 61 55 51 53 52 49 49 63 62 61 62 63 65 63 62 61 59 52 50 54 55 58 87 122 138
239 237 232 227 224 234 242 359 336 319 316 15 43 32 35 36 46 53 65 53 44 46 46 53 41 47 52 59 63 59 59 66 62 58 55 58 59 61 63 68 79 97 125
233 228 225 230 235 232 243 274 328 316 308 297 27 28 27 30 40 36 46 57 34 27 42 44 54 49 46 49 63 57 54 58 58 55 51 56 61 63 64 69 76 86 100
237 225 225 235 241 245 260 264 281 292 306 281 299 333 10 10 8 358 33 36 28 28 30 36 35 38 40 35 45 59 51 49 52 54 50 50 55 62 70 71 68 75 77
267 241 228 234 236 242 262 253 275 302 300 275 273 311 330 336 350 334 343 1 27 29 30 23 17 25 32 49 58 40 43 47 48 52 50 51 52 54 59 65 64 63 66
267 249 237 229 234 242 246 239 261 288 284 255 258 309 330 330 326 309 309 333 355 39 22 2 4 14 22 44 52 52 32 27 31 42 46 46 50 51 54 55 56 53 53
255 254 238 230 236 236 238 235 260 290 281 257 271 288 306 314 327 320 314 306 299 350 13 11 358 6 19 41 17 15 32 18 3 23 36 39 43 42 46 47 48 48 46
300 265 239 227 239 256 232 238 253 262 265 259 265 271 285 291 325 328 301 294 296 320 343 9 335 347 5 359 0 353 356 3 337 359 24 22 25 24 23 29 35 39 39
305 278 242 227 228 252 227 233 250 263 279 267 270 261 267 280 294 316 314 322 305 301 329 329 316 343 347 350 0 351 345 333 338 331 339 355 0 1 358 356 8 12 20
226 92 246 236 240 231 228 234 241 259 277 287 269 265 263 266 288 311 311 325 331 276 300 286 43 91 46 31 19 346 323 321 316 314 311 320 330 332 333 332 325 326 346
223 259 325 300 238 231 230 244 245 256 267 284 269 275 268 257 260 278 255 311 300 230 222 106 112 72 14 2 357 346 342 323 305 298 300 304 305 313 317 311 305 304 300
265 262 235 221 252 238 244 241 249 249 258 264 268 264 271 248 247 262 249 262 291 260 214 251 299 305 324 350 341 335 336 329 308 281 280 283 298 298 296 301 289 285 295
277 262 276 250 259 251 247 263 249 249 250 247 263 266 266 239 251 273 254 245 254 266 243 261 288 312 312 316 334 333 336 335 316 314 301 284 283 290 295 297 295 296 285
261 272 271 271 272 273 265 281 259 254 255 242 258 272 258 240 253 259 260 243 247 267 276 299 291 291 289 297 323 325 336 336 331 324 323 315 298 294 295 298 301 302 294
263 271 270 276 268 252 291 291 275 258 245 245 263 268 256 249 251 262 264 256 242 244 252 265 277 289 286 299 310 324 327 327 333 346 357 346 332 318 320 320 313 311 305
256 258 261 262 250 255 285 279 260 261 255 252 258 251 259 255 262 269 259 267 255 254 254 264 274 280 287 293 296 318 324 309 319 321 343 353 356 0 344 349 354 8 11
240 252 248 242 255 264 263 263 262 260 249 253 247 259 256 255 258 267 259 257 257 259 253 255 262 277 282 291 294 307 315 290 286 287 309 335 323 339 349 355 6 16 15
246 244 252 256 257 251 246 241 248 258 249 244 252 257 250 245 263 277 271 268 266 268 258 262 263 272 275 278 287 293 293 293 273 274 285 315 303 317 308 342 5 4 6
242 247 252 251 244 248 249 247 250 245 251 254 265 257 250 262 270 265 265 269 266 264 270 269 269 270 273 278 284 286 288 293 273 266 276 296 292 302 305 308 345 7 18
234 242 242 237 233 242 247 243 239 244 250 254 261 254 259 264 267 263 264 263 266 272 268 268 273 278 280 283 286 285 286 294 292 261 266 280 276 288 292 291 321 2 4
236 234 237 230 229 237 236 238 237 239 245 245 249 256 255 260 248 256 263 268 260 266 268 260 275 279 283 288 285 284 287 289 281 267 259 267 267 274 278 273 296 343 353
235 230 233 242 236 234 233 231 239 236 237 235 243 247 249 247 247 254 261 268 262 266 265 272 281 285 286 287 288 283 285 284 277 259 253 257 261 268 269 262 281 308 327
Height
11000 11000 10999 10998 10997 10996 10994 10992 10990 10988 10986 10984 10981 10977 10974 10970 10966 10964 10959 10955 10950 10946 10943 10940 10936 10933 10930 10928 10926 10925 10924 10924 10922 10921 10920 10919 10919 10918 10916 10916 10916 10916 10918
10999 11000 10999 10998 10998 10997 10996 10993 10991 10990 10989 10986 10984 10981 10978 10975 10971 10967 10965 10960 10956 10951 10948 10945 10942 10939 10935 10933 10931 10929 10927 10926 10924 10923 10921 10919 10918 10917 10917 10916 10916 10917 10918
10997 10998 10998 10998 10998 10997 10997 10995 10993 10993 10991 10988 10986 10984 10982 10978 10975 10971 10968 10964 10961 10957 10954 10951 10948 10945 10941 10938 10935 10934 10931 10929 10927 10925 10923 10920 10918 10918 10916 10916 10915 10916 10919
10996 10996 10997 10997 10997 10997 10996 10995 10995 10994 10992 10990 10988 10986 10984 10981 10978 10974 10971 10968 10965 10961 10959 10956 10953 10950 10947 10943 10940 10938 10934 10932 10930 10927 10925 10923 10920 10918 10915 10914 10913 10915 10918
10992 10994 10994 10995 10995 10996 10995 10995 10995 10994 10993 10990 10989 10987 10986 10983 10981 10978 10974 10972 10970 10967 10963 10961 10959 10955 10952 10949 10945 10942 10938 10935 10933 10929 10927 10925 10922 10919 10918 10917 10916 10916 10918
10987 10991 10992 10992 10994 10994 10994 10994 10995 10994 10992 10991 10989 10987 10986 10984 10983 10980 10978 10975 10973 10971 10968 10965 10963 10960 10958 10954 10949 10945 10942 10939 10937 10934 10931 10927 10926 10923 10921 10920 10920 10920 10921
10982 10985 10988 10990 10991 10991 10991 10992 10993 10993 10992 10991 10990 10989 10987 10986 10984 10981 10980 10978 10976 10973 10971 10969 10967 10964 10961 10958 10953 10950 10947 10943 10940 10938 10937 10934 10930 10928 10926 10926 10924 10923 10924
10977 10979 10983 10986 10987 10989 10989 10989 10989 10990 10989 10989 10988 10988 10987 10986 10985 10982 10981 10979 10977 10974 10973 10971 10970 10967 10965 10962 10958 10953 10950 10948 10945 10943 10944 10941 10936 10933 10931 10930 10929 10928 10928
10975 10974 10976 10980 10983 10985 10986 10987 10987 10988 10986 10985 10986 10986 10985 10985 10984 10982 10980 10979 10977 10975 10974 10972 10971 10969 10967 10965 10961 10959 10955 10953 10951 10949 10947 10945 10942 10939 10936 10934 10933 10933 10933
10972 10972 10972 10974 10978 10981 10983 10984 10985 10986 10985 10984 10984 10984 10984 10983 10983 10982 10980 10979 10978 10976 10974 10973 10971 10970 10968 10967 10964 10962 10960 10957 10955 10953 10950 10948 10946 10944 10940 10938 10938 10938 10937
10968 10968 10968 10971 10975 10978 10981 10983 10984 10983 10983 10983 10982 10981 10982 10982 10981 10979 10978 10977 10978 10976 10975 10973 10971 10971 10969 10968 10966 10964 10961 10960 10958 10956 10954 10951 10949 10948 10946 10943 10942 10940 10940
10965 10964 10964 10967 10970 10973 10977 10980 10982 10982 10981 10981 10980 10980 10979 10979 10979 10978 10977 10975 10975 10975 10973 10972 10969 10969 10968 10968 10967 10964 10962 10960 10959 10956 10955 10954 10952 10950 10950 10948 10945 10944 10942
10962 10960 10961 10964 10967 10970 10972 10975 10978 10978 10978 10977 10976 10976 10977 10977 10977 10977 10975 10972 10971 10972 10970 10969 10969 10967 10967 10967 10965 10963 10962 10960 10958 10956 10955 10954 10952 10950 10950 10949 10948 10947 10944
10961 10958 10959 10960 10963 10965 10968 10971 10972 10973 10973 10973 10973 10972 10973 10974 10974 10974 10973 10970 10970 10969 10968 10967 10966 10966 10967 10966 10964 10962 10960 10959 10956 10954 10953 10951 10951 10950 10949 10948 10948 10947 10945
10957 10956 10956 10957 10959 10961 10963 10965 10966 10968 10968 10968 10969 10969 10969 10971 10972 10971 10971 10970 10968 10966 10965 10966 10966 10965 10965 10964 10962 10960 10958 10955 10954 10952 10950 10949 10948 10947 10947 10945 10945 10944 10943
10954 10952 10952 10953 10954 10957 10959 10959 10959 10962 10964 10964 10965 10965 10965 10966 10968 10968 10968 10967 10966 10965 10963 10963 10963 10963 10962 10961 10960 10958 10955 10952 10949 10947 10947 10946 10945 10944 10943 10942 10941 10940 10938
10948 10949 10948 10948 10949 10951 10953 10952 10953 10956 10958 10961 10962 10960 10961 10961 10963 10964 10963 10963 10963 10963 10961 10961 10960 10960 10960 10959 10957 10954 10950 10947 10944 10942 10941 10940 10940 10939 10937 10936 10935 10934 10933
10942 10943 10943 10944 10944 10945 10946 10946 10947 10949 10952 10955 10957 10957 10957 10957 10959 10960 10958 10958 10958 10959 10958 10958 10957 10956 10956 10954 10954 10950 10948 10943 10939 10938 10937 10935 10935 10933 10932 10930 10928 10927 10926
10933 10935 10938 10939 10940 10939 10941 10940 10940 10942 10945 10948 10950 10952 10952 10952 10954 10954 10954 10953 10953 10953 10953 10953 10952 10951 10950 10949 10948 10946 10943 10940 10938 10936 10935 10933 10930 10928 10927 10926 10923 10921 10920
10926 10928 10931 10932 10934 10934 10936 10936 10936 10937 10938 10941 10943 10945 10946 10947 10948 10948 10948 10946 10946 10947 10948 10948 10947 10946 10945 10945 10945 10944 10941 10939 10937 10935 10933 10931 10929 10927 10924 10922 10920 10917 10915
10914 10918 10920 10922 10924 10924 10925 10926 10928 10932 10933 10933 10935 10936 10937 10939 10941 10940 10941 10942 10941 10941 10941 10941 10941 10940 10940 10940 10940 10939 10938 10937 10934 10933 10931 10929 10927 10925 10923 10921 10918 10914 10911
10903 10907 10909 10911 10912 10914 10915 10916 10916 10920 10923 10924 10925 10927 10928 10931 10933 10934 10934 10934 10934 10934 10935 10934 10933 10934 10933 10934 10934 10933 10932 10931 10931 10928 10927 10926 10924 10923 10921 10918 10914 10910 10907
10893 10894 10896 10899 10901 10904 10905 10908 10910 10911 10913 10915 10916 10919 10922 10924 10924 10924 10924 10926 10926 10925 10925 10925 10926 10927 10926 10925 10925 10925 10924 10924 10924 10922 10920 10922 10919 10918 10917 10914 10910 10906 10903
10881 10882 10884 10887 10890 10891 10894 10898 10901 10904 10906 10906 10907 10910 10911 10913 10915 10916 10915 10917 10918 10919 10918 10918 10918 10919 10918 10917 10917 10917 10915 10914 10914 10915 10913 10916 10914 10913 10911 10910 10907 10902 10898
10868 10870 10871 10874 10876 10876 10881 10885 10887 10892 10896 10899 10899 10901 10902 10904 10905 10908 10909 10910 10909 10910 10910 10910 10910 10910 10909 10908 10908 10907 10906 10905 10904 10905 10903 10907 10907 10906 10905 10904 10902 10898 10894
10852 10855 10857 10859 10859 10863 10868 10872 10875 10879 10883 10886 10890 10893 10896 10895 10899 10900 10902 10902 10902 10902 10903 10903 10902 10900 10899 10898 10897 10896 10896 10896 10893 10894 10893 10897 10898 10899 10899 10898 10895 10892 10888